Location: Ellerstadt
(49.4644°N, 8.2615°E)
Time: 22:06:10
(UTC+00:00)

Cosmos 1898 Rocket - Pass Details

Date: 03 March 2021
Orbit: 753 x 784 km, 74.0° (Epoch: 13 April)

Event Time Altitude Azimuth Distance (km) Brightness Sun altitude
Rises 19:51:37 0° 339° (NNW) 3,228 7.3 -26.1°
Reaches altitude 10° 19:54:04 10° 345° (NNW) 2,303 6.4 -26.5°
Enters shadow 19:57:55 40° 21° (NNE) 1,114 4.3 -27.0°
